User: anonymous   Login
Location: Starry Hill Observatory
(46.8582°N, 122.3590°W)
Time: 15:13:55
(UTC-07:00)
Language:

Cosmos 1300 Rocket - Orbit

View from above orbital plane
View from above orbital plane
View from above satellite
View from above satellite

Ground track
Ground track

The orbit data is extracted from the following two-line orbital elements,

1 12786U 81082B   15212.67197690  .00000211  00000-0  22149-4 0  9995
2 12786 082.4874 254.6622 0017715 006.1191 354.0237 14.84496101832954
Epoch (UTC): 31 July 2015 16:07:38
Eccentricity: 0.0017715
inclination: 82.4874°
perigee height: 603 km
apogee height: 627 km
right ascension of ascending node: 254.6622°
argument of perigee: 6.1191°
revolutions per day: 14.84496101
mean anomaly at epoch: 354.0237°
orbit number at epoch: 83295

The dashed part of the orbit path shows where the satellite is in the earth's shadow,  

DLR